Theta_e
278 277 276 275 275 274 273 273 272 272 272 272 272 272 271 271 271 271 270 270 270 270 269 269 269 269 268 268 268 268 268 268 268 267 267 267 267 267 267 267 267 267 267 267 267 267 267 267 267 267 267 267 267 267 267 267 267 267 267 267 267 267 267
277 277 276 275 275 274 273 273 273 272 272 272 272 272 271 271 271 271 270 270 270 270 269 269 269 268 268 268 268 267 267 267 267 267 267 267 267 267 267 267 267 267 267 266 267 266 266 267 267 267 266 266 267 267 267 267 267 267 267 267 267 267 266
277 277 276 275 275 274 273 273 273 272 272 272 272 271 271 271 271 270 270 270 270 270 269 269 269 268 268 268 267 267 267 267 267 267 267 267 266 266 267 267 266 266 266 266 266 266 266 266 266 266 266 266 266 266 267 267 266 266 266 266 266 266 266
277 277 276 275 274 274 273 273 272 272 272 272 271 271 271 271 270 270 270 270 270 269 269 269 269 268 268 267 267 267 267 267 266 266 266 266 266 266 266 266 266 266 266 266 266 266 266 266 266 266 266 266 266 266 266 266 266 266 266 266 266 266 266
276 276 275 275 274 274 273 273 272 272 272 272 271 271 271 271 270 270 270 269 269 269 269 269 268 268 268 267 267 267 266 266 266 266 266 266 266 266 266 265 265 265 265 265 265 265 265 265 265 265 265 265 265 265 266 266 266 266 266 265 265 265 265
276 275 275 274 274 274 273 273 272 272 272 271 271 271 271 270 270 270 269 269 269 269 268 268 268 268 268 267 267 267 266 266 266 266 265 265 265 265 265 265 265 265 265 265 265 265 265 265 265 265 265 265 265 265 265 265 265 265 265 265 265 265 265
275 275 275 274 274 273 273 272 272 272 272 271 271 271 270 270 270 269 269 269 268 268 268 268 268 267 267 267 267 266 266 266 265 265 265 265 265 265 264 264 264 264 264 264 264 264 264 264 264 265 265 265 265 265 265 265 265 265 265 265 265 265 265
275 275 274 274 273 273 273 272 272 271 271 271 270 270 270 269 269 269 269 268 268 268 268 267 267 267 267 267 266 266 266 265 265 265 265 264 264 264 264 264 264 263 263 263 263 264 264 264 264 264 264 264 265 265 265 265 265 265 265 265 265 265 265
275 274 274 273 273 273 272 272 271 271 271 271 270 270 269 269 269 268 268 268 267 267 267 267 267 267 266 266 266 266 266 265 265 265 264 264 264 264 264 263 263 263 263 263 263 263 263 263 264 264 264 264 264 265 265 265 265 265 265 265 265 265 265
274 274 273 273 272 272 272 271 271 271 271 270 270 269 269 268 268 268 267 267 267 267 266 266 266 266 266 266 266 265 265 265 265 265 264 264 264 264 263 263 263 263 263 263 263 263 263 263 263 264 264 264 264 264 265 265 265 265 265 265 265 265 265
274 273 273 273 272 272 271 271 271 271 270 270 270 269 268 268 267 267 267 266 266 266 266 265 265 265 265 265 265 265 265 265 265 265 265 264 264 264 263 263 263 263 263 263 263 263 263 263 263 263 264 264 264 264 264 264 265 265 265 265 265 265 265
273 273 272 272 272 271 271 271 271 270 270 270 270 270 269 268 267 266 266 266 266 265 265 265 265 265 265 265 265 265 265 265 265 265 265 265 264 264 264 264 263 263 263 262 263 263 263 263 263 263 263 264 264 264 264 264 264 264 264 264 264 264 264
272 272 272 272 272 271 271 271 270 270 270 270 270 270 270 269 268 267 267 266 266 266 266 266 265 265 265 265 265 265 264 264 264 264 264 264 264 264 264 264 264 264 263 263 262 262 263 263 263 263 263 263 263 263 264 264 264 264 264 264 264 264 264
272 271 271 271 272 271 270 270 270 269 270 270 270 270 270 270 269 268 268 267 267 266 266 266 266 266 265 265 265 265 265 264 264 264 264 264 264 264 264 264 264 264 264 264 263 263 263 263 263 263 263 263 263 263 263 263 263 263 263 263 263 264 264
271 271 271 271 271 270 270 269 269 269 269 270 270 270 270 270 269 269 268 268 267 267 267 267 267 266 266 266 266 265 265 265 264 264 264 264 264 264 264 264 264 264 264 264 264 264 263 263 263 263 263 263 263 263 263 263 263 263 263 263 263 263 263
271 271 271 271 270 269 269 269 268 268 269 269 269 269 269 269 269 268 268 268 267 267 267 267 267 266 266 266 266 266 266 266 265 264 264 264 263 263 263 263 263 263 264 263 263 263 263 263 263 263 263 263 263 263 263 263 263 263 263 263 263 263 263
270 270 270 270 269 269 268 268 268 268 268 269 269 269 269 268 268 267 267 267 267 267 267 267 267 266 266 266 266 266 266 266 266 265 264 263 263 263 262 262 263 263 263 264 264 264 264 264 264 264 264 264 264 264 263 263 263 263 263 263 263 263 264
269 269 269 268 268 268 267 267 267 267 267 268 269 269 268 268 267 267 267 267 267 266 266 266 266 266 266 265 265 265 266 266 266 266 264 263 263 262 262 262 262 262 262 263 263 264 264 264 264 264 265 265 265 265 265 264 264 264 263 264 264 264 264
268 268 267 267 267 267 266 266 266 266 266 267 268 268 268 267 267 267 266 266 266 266 266 265 265 265 265 265 265 265 266 266 266 266 265 265 264 263 263 262 262 262 262 262 262 263 263 264 264 264 264 264 264 264 264 263 263 263 263 263 264 264 264
267 267 267 266 266 266 266 266 266 265 266 266 267 268 267 267 267 266 266 266 266 265 265 265 265 265 265 265 266 266 266 266 266 266 265 265 265 264 263 263 263 262 262 262 262 262 262 263 263 263 263 263 263 263 263 263 262 262 262 262 263 263 263
267 266 266 266 265 265 265 265 265 265 265 265 266 267 267 267 267 266 266 265 265 265 265 264 264 264 264 265 265 266 266 266 266 266 266 265 265 265 264 264 263 263 263 263 262 262 262 262 262 263 263 263 263 263 263 263 262 262 262 262 262 262 262
266 265 265 265 265 264 264 264 264 264 264 264 265 266 267 267 266 266 266 265 265 265 264 264 264 264 264 264 265 265 266 266 266 266 266 266 266 266 265 265 265 264 263 263 263 263 263 263 263 263 263 263 263 262 262 262 262 262 261 261 261 261 261
265 264 264 264 264 264 264 264 264 263 264 264 264 265 266 266 266 266 266 265 265 264 264 264 264 264 264 264 265 265 265 265 266 266 266 266 267 267 266 266 266 265 264 264 264 263 263 263 263 263 263 263 262 262 262 262 261 261 261 260 260 260 260
264 264 264 264 264 264 263 263 263 263 263 263 263 263 264 265 266 266 266 266 265 265 265 264 264 264 264 264 265 265 265 266 266 266 266 266 266 266 266 265 265 265 264 264 263 263 263 263 263 262 262 262 262 262 262 261 261 260 260 260 260 259 259
265 264 264 264 264 264 263 263 263 263 262 262 262 262 263 264 265 266 266 266 265 265 265 265 265 265 265 265 265 265 265 265 265 265 265 265 265 264 264 263 263 263 263 263 262 262 262 262 262 262 262 262 261 261 261 260 260 260 259 259 258 258 258
265 265 264 264 264 264 263 263 263 263 262 262 262 262 262 263 264 264 264 265 265 265 264 264 265 265 265 265 265 265 264 264 264 263 263 264 264 263 263 262 262 262 262 262 262 262 262 261 261 261 261 261 260 260 259 259 258 258 258 257 257 257 257
264 264 264 264 264 263 263 263 263 262 262 262 261 261 262 262 263 263 263 263 263 263 263 263 264 264 264 264 263 263 263 263 263 263 263 263 263 263 262 262 262 262 262 261 261 261 261 261 260 260 260 259 258 258 258 257 257 257 257 257 256 256 256
264 264 264 264 263 263 263 263 263 262 262 262 261 261 261 262 262 263 263 262 262 262 262 262 262 262 263 263 262 262 262 262 262 262 262 262 262 262 262 262 261 261 261 260 260 260 260 260 259 259 259 258 257 257 257 256 256 256 256 256 256 256 256
264 264 263 263 263 263 263 263 263 263 262 262 262 262 262 262 262 263 263 263 263 262 262 262 262 262 262 262 262 262 262 262 262 262 262 262 262 262 261 261 260 260 259 259 259 259 259 258 258 258 257 257 256 256 256 256 256 256 255 255 255 255 255
264 263 263 263 262 262 262 262 262 263 263 264 264 264 264 264 264 264 264 264 264 263 262 262 262 262 262 262 262 262 262 262 262 262 262 262 262 261 261 260 259 259 259 259 258 258 258 258 257 257 257 256 256 256 256 255 255 255 254 254 254 254 254
264 264 264 264 263 263 262 262 263 263 264 265 265 266 266 266 265 265 265 265 264 264 263 263 263 263 263 263 262 262 262 262 262 262 262 262 261 261 260 259 259 259 258 258 258 258 257 257 257 256 256 256 255 255 255 255 254 254 253 253 253 253 254
265 265 265 265 265 265 264 264 264 264 264 265 265 265 266 266 265 265 265 265 264 263 263 263 263 263 263 263 263 263 262 262 262 262 262 261 261 260 259 259 259 258 258 258 257 257 256 256 256 255 255 255 255 254 254 253 253 253 253 253 253 253 253
264 265 265 265 265 265 265 265 264 264 264 264 264 264 264 264 263 263 263 263 263 262 262 263 263 263 263 263 263 263 262 262 262 261 261 261 261 260 260 259 258 258 257 257 257 256 256 255 255 255 254 254 253 253 252 252 252 252 252 252 252 253 253
262 262 262 262 262 262 262 262 262 262 262 262 261 261 261 261 261 262 262 262 262 262 262 262 262 262 262 262 262 262 262 262 261 261 261 260 260 260 259 259 257 257 256 256 255 255 255 254 254 254 253 253 252 252 252 251 251 251 251 252 252 252 252
260 260 260 260 260 260 259 259 259 259 259 259 259 260 260 260 260 261 261 261 261 261 262 262 262 262 262 262 262 261 261 260 260 260 259 259 259 258 258 257 256 256 255 255 254 254 254 254 253 253 252 252 251 251 251 251 251 251 251 251 251 252 252
260 260 259 259 259 259 258 258 258 258 258 258 259 260 260 260 260 260 260 260 261 261 261 261 261 261 261 260 260 260 259 259 259 258 258 258 257 257 257 256 255 255 254 254 254 254 253 253 252 252 251 251 251 251 250 250 250 250 250 250 251 251 251
Wind_Speed
34 35 35 33 32 31 30 28 27 25 25 24 23 22 21 20 21 21 20 19 19 20 19 20 20 21 20 19 19 18 17 17 18 18 18 18 18 19 18 18 20 18 18 22 20 18 18 18 20 20 19 19 20 21 22 24 24 24 24 23 22 22 21
35 36 36 36 35 33 31 30 28 26 25 24 23 23 21 21 21 21 21 20 20 21 20 20 21 21 21 21 21 20 19 19 18 18 19 19 18 19 20 20 22 22 21 22 22 20 20 20 20 21 19 19 22 23 22 23 24 24 24 23 23 23 22
36 37 37 37 36 34 32 30 27 26 25 24 24 23 22 21 21 22 22 21 21 21 21 21 21 21 21 21 21 21 20 20 20 19 19 20 20 21 22 22 23 24 23 23 24 22 21 20 20 21 20 20 22 23 22 23 24 24 25 25 24 24 24
36 37 37 37 36 34 32 29 27 26 25 24 24 24 22 21 22 22 22 22 21 21 21 21 22 22 22 22 22 22 21 21 20 20 21 23 23 23 24 24 24 24 24 24 24 23 22 20 19 20 20 20 21 22 22 23 24 24 25 25 24 25 25
35 37 37 37 36 34 31 28 27 26 25 24 23 23 22 22 22 22 22 21 21 21 22 22 23 23 22 23 24 23 22 22 21 21 23 24 23 22 22 23 23 24 24 25 25 24 23 21 20 21 21 20 21 22 22 23 24 24 24 24 24 24 25
34 36 37 37 36 33 30 27 26 25 24 24 23 22 22 22 22 22 22 21 21 22 22 23 24 24 24 25 26 25 25 24 24 24 25 25 24 22 21 21 22 22 22 23 24 24 23 22 21 21 21 20 20 22 22 22 22 23 23 23 23 23 23
33 35 36 35 34 31 29 27 26 24 24 23 23 23 23 22 22 22 21 21 21 22 23 25 26 26 27 27 28 28 27 26 26 25 26 26 25 24 23 22 22 22 22 23 23 23 22 22 21 21 22 20 20 22 23 23 22 22 21 21 22 22 21
33 33 33 32 32 31 29 27 26 24 23 24 24 24 24 23 22 21 21 20 21 22 24 26 27 28 29 30 31 31 30 29 28 26 25 26 24 24 24 24 24 23 23 23 22 22 22 22 22 22 22 21 20 21 22 21 21 22 21 20 20 20 19
32 32 31 31 31 30 29 28 27 26 26 26 26 25 25 24 23 22 21 21 21 23 25 27 28 29 31 32 32 32 31 32 31 29 28 28 26 24 23 23 23 23 22 21 21 21 21 21 21 21 21 20 20 21 21 20 21 22 22 21 21 20 20
31 32 32 31 30 29 28 28 28 28 28 27 27 27 27 27 26 24 23 23 23 24 26 27 29 30 31 31 31 31 31 31 31 31 31 31 29 27 26 25 24 23 23 21 21 22 21 20 20 21 21 21 20 21 21 21 21 22 21 20 20 20 19
29 31 33 32 30 29 28 29 29 29 28 25 24 26 28 29 28 27 26 26 26 27 28 29 30 31 31 31 31 32 32 30 30 32 32 32 31 31 30 29 26 23 23 23 22 22 21 21 21 21 21 21 21 21 21 22 21 21 20 19 17 16 16
29 30 32 32 30 29 28 29 29 28 26 23 23 23 24 25 26 26 27 28 28 30 31 32 32 32 33 34 35 36 35 34 34 34 34 34 34 34 34 34 31 26 25 25 24 23 24 23 23 22 22 22 21 20 21 22 21 21 20 20 19 18 17
29 30 30 31 30 29 29 29 29 27 24 23 23 24 23 23 22 21 23 25 27 30 31 33 35 33 32 33 34 34 36 37 38 38 37 36 36 37 37 38 39 35 32 28 25 24 25 26 24 23 22 21 20 20 21 21 22 21 21 22 22 21 21
29 29 29 29 28 28 29 30 29 27 24 22 23 24 24 24 24 22 21 22 24 27 28 31 35 33 29 29 31 31 32 35 37 37 38 38 38 39 37 36 38 39 37 34 30 26 26 29 29 28 27 25 23 23 24 23 22 23 23 24 24 24 24
28 28 27 27 27 28 29 29 28 26 24 23 23 23 23 23 24 23 22 23 24 25 26 26 28 29 30 31 31 30 30 31 33 34 36 37 38 39 37 36 36 36 36 37 36 33 31 31 32 32 33 32 31 31 31 29 29 29 27 25 25 24 24
25 25 26 26 27 28 29 29 28 25 23 22 23 23 22 21 21 21 21 23 25 26 26 25 23 24 25 27 28 27 26 28 29 31 34 36 37 37 37 38 38 35 35 37 38 38 37 36 35 34 34 34 33 33 32 31 31 30 26 24 22 22 23
23 23 25 26 27 28 29 29 27 25 23 22 21 21 20 18 18 19 20 22 24 24 24 25 25 24 23 24 26 26 26 27 28 29 32 35 36 35 35 37 37 34 34 36 37 38 39 40 39 38 37 36 34 33 32 30 28 25 23 22 18 16 19
21 21 23 25 26 27 28 28 27 26 23 21 21 21 19 18 17 18 19 20 22 21 20 22 24 25 26 27 27 26 27 28 28 28 29 31 33 34 35 36 34 32 33 34 35 36 36 36 37 37 36 35 35 33 28 24 21 18 19 20 17 15 18
19 20 21 23 24 25 26 27 27 26 24 22 21 20 19 18 19 19 19 19 19 19 18 19 21 23 26 29 29 28 29 30 29 29 29 28 27 28 33 35 33 31 33 34 35 36 35 33 32 31 31 31 32 31 27 22 20 16 15 17 17 17 15
17 18 19 20 21 23 25 26 27 27 25 22 21 21 20 20 20 20 19 18 18 18 18 18 20 22 24 27 29 30 32 33 32 33 33 30 26 25 27 29 29 30 32 34 35 35 34 33 31 30 30 31 30 30 29 27 25 23 20 19 18 17 15
16 17 18 19 21 22 24 26 26 27 26 23 21 22 23 23 22 22 20 18 17 18 20 21 21 22 23 25 26 28 31 33 33 33 32 31 31 31 30 28 27 29 30 31 31 30 29 28 28 27 27 27 26 26 27 26 26 26 25 24 20 17 17
16 16 16 18 20 22 24 26 27 28 28 25 23 24 25 25 25 24 23 21 19 19 21 22 21 21 22 23 23 25 29 31 31 30 30 29 31 34 34 32 31 30 28 27 25 23 22 22 21 21 20 20 19 20 21 21 21 22 23 24 23 20 19
17 17 16 16 18 20 22 25 27 28 29 28 27 26 26 27 27 26 25 25 23 22 22 21 21 22 22 22 23 25 28 29 27 27 27 26 27 28 28 29 28 26 23 19 17 18 19 19 18 18 18 18 18 18 19 18 18 17 19 21 22 23 23
14 14 14 15 16 17 19 21 24 27 28 28 28 26 25 26 28 28 27 27 27 26 24 22 22 23 23 24 26 28 29 28 27 26 25 23 22 20 19 17 16 16 15 13 11 13 14 15 15 16 17 17 17 16 17 18 18 19 21 23 25 26 28
11 12 12 13 14 15 15 16 19 23 25 26 26 25 24 24 26 27 27 27 29 29 28 25 25 26 27 27 28 28 26 23 22 20 20 18 15 13 12 10 9 10 11 11 11 12 13 14 15 16 16 16 16 16 17 19 20 22 23 25 27 29 31
12 12 12 13 13 13 13 13 15 19 22 24 24 24 24 23 25 26 27 27 28 29 28 28 28 28 28 26 25 23 21 19 18 18 18 18 14 12 12 10 11 13 13 13 14 14 14 14 15 15 15 16 17 19 20 20 20 20 21 21 22 23 25
12 12 13 14 13 13 13 14 15 17 19 21 22 23 23 23 23 24 26 27 28 28 27 27 27 28 27 25 23 23 22 22 22 21 19 17 15 14 14 14 15 16 16 16 16 15 15 15 15 15 15 15 16 17 18 18 18 18 18 17 18 18 20
12 13 14 14 13 13 13 14 15 16 18 20 21 21 21 20 20 21 24 28 30 30 28 27 27 27 25 23 22 22 21 20 20 20 19 18 17 17 18 18 17 17 18 18 16 15 14 15 15 15 15 15 15 15 16 16 17 17 17 17 17 17 17
15 15 15 14 14 14 14 14 15 16 17 19 21 21 22 22 22 23 25 27 29 29 27 25 25 24 22 21 20 19 19 19 19 19 20 22 21 19 18 20 21 21 20 20 18 16 15 15 15 15 15 15 15 16 15 15 16 17 17 16 16 16 17
19 19 18 17 17 18 18 19 20 19 19 20 22 24 25 26 26 27 27 28 28 27 24 21 21 20 20 20 20 19 20 20 20 19 19 20 22 21 20 21 24 25 23 20 17 16 15 15 15 15 15 15 15 15 15 15 15 15 15 15 15 16 17
21 22 21 21 21 22 24 26 29 28 26 25 26 27 28 27 27 27 27 26 25 23 20 18 18 18 19 19 20 20 20 20 20 20 20 19 19 21 21 21 22 23 22 20 19 18 16 16 15 15 15 15 14 14 14 14 13 14 14 15 16 17 17
20 22 22 22 24 25 27 27 26 26 25 24 25 25 25 22 21 19 18 17 15 13 13 15 16 18 19 20 20 20 20 20 20 20 20 19 18 19 19 19 19 19 19 19 19 18 17 16 15 14 13 13 13 14 14 13 13 14 14 15 16 17 18
19 20 21 21 22 24 25 24 22 22 23 22 22 21 20 19 19 21 21 19 16 13 13 15 17 18 19 19 20 20 20 20 21 20 19 19 18 18 18 17 18 19 19 19 18 16 16 15 14 14 13 13 13 13 13 12 13 14 14 15 16 16 16
16 17 18 20 21 21 21 22 23 23 24 23 22 21 20 20 21 23 24 23 20 18 19 19 19 20 20 20 20 19 18 18 18 18 18 17 17 16 15 15 17 19 20 19 18 16 16 15 14 14 14 13 13 12 12 12 13 13 14 14 15 16 16
16 16 15 17 20 21 19 19 21 22 22 21 21 20 19 18 18 18 18 18 19 20 21 20 19 19 19 17 16 16 15 14 14 14 15 15 16 16 14 15 17 19 19 19 18 16 15 15 14 14 14 13 13 13 12 12 12 13 13 14 15 15 15
15 16 16 17 19 20 18 17 19 19 18 18 18 18 17 16 16 15 15 16 17 17 17 16 15 15 15 14 14 14 14 13 13 14 14 14 15 15 15 15 16 17 18 19 17 15 15 15 14 14 14 13 13 13 13 13 13 13 14 14 14 14 15
Wind_Direction
203 203 201 196 195 195 194 192 191 194 196 200 204 207 207 206 207 210 212 213 214 215 217 220 222 225 227 227 231 235 236 239 240 240 242 242 243 246 247 249 254 261 272 275 273 271 271 273 275 274 270 270 272 271 272 274 274 277 280 279 277 277 277
204 204 204 203 201 198 197 196 194 194 197 201 204 206 207 207 207 210 213 214 214 215 218 221 223 225 226 226 229 233 234 237 240 241 243 242 239 245 249 251 257 263 268 273 274 272 272 274 273 272 271 271 274 276 275 277 277 275 275 275 276 278 278
210 209 208 206 202 199 198 198 195 195 199 202 204 206 207 208 209 211 213 215 215 216 218 222 225 226 226 225 227 230 232 235 238 240 244 245 244 248 254 255 257 260 264 270 273 273 273 272 268 268 272 274 276 276 276 276 275 273 273 274 274 275 275
215 212 208 205 202 200 199 196 194 197 201 203 205 207 209 210 211 214 215 216 216 217 219 222 226 227 226 226 227 228 229 231 234 239 244 248 249 251 255 256 254 255 259 265 269 271 271 269 266 267 272 276 275 273 273 274 273 272 272 271 271 272 273
213 210 207 204 202 201 198 194 195 198 201 204 207 209 211 212 214 216 217 217 217 218 221 224 227 229 227 226 228 227 226 227 231 239 245 247 247 247 250 252 251 253 256 259 263 267 269 268 267 269 271 272 271 271 272 272 271 270 270 270 270 270 271
209 208 206 205 203 201 197 194 196 199 201 205 207 210 213 215 215 217 218 219 219 220 222 226 229 231 230 229 230 229 228 230 233 237 240 241 242 243 246 247 248 250 252 255 258 262 266 266 265 267 268 266 266 268 271 272 272 270 268 267 269 269 270
208 208 206 204 202 199 197 196 197 199 202 205 208 213 216 216 215 218 219 220 221 222 225 230 232 234 233 232 233 233 232 233 235 235 236 239 241 243 244 245 247 248 250 253 256 258 260 262 262 262 264 265 265 265 267 269 271 271 267 264 266 268 269
208 206 204 202 201 199 199 200 198 198 202 207 212 216 218 217 215 217 219 220 222 225 229 233 235 236 237 237 237 236 236 236 236 235 236 238 239 239 241 243 244 246 247 248 251 253 254 257 259 259 260 263 263 262 262 263 265 267 267 265 265 266 267
207 204 200 199 199 200 200 202 203 204 208 213 217 219 220 220 218 218 221 223 225 229 232 236 238 239 240 240 239 239 239 239 239 237 237 238 238 236 238 241 241 242 243 244 246 248 249 252 254 254 255 257 256 257 261 263 264 265 266 267 267 266 265
205 203 201 199 199 200 201 205 209 212 216 219 221 222 222 223 224 224 225 227 230 233 235 238 240 242 242 242 240 240 240 239 239 240 239 239 238 236 237 238 239 238 237 238 242 244 245 247 249 249 250 253 253 256 261 264 264 264 266 267 268 268 266
203 203 203 202 201 202 205 210 216 220 221 219 220 224 227 229 231 231 232 233 234 237 240 243 245 246 246 243 242 242 241 239 239 241 242 241 240 239 237 236 237 236 234 234 239 242 243 245 248 248 248 251 254 257 260 263 262 262 264 265 266 269 270
204 204 204 203 204 207 212 218 223 226 224 218 217 224 230 233 234 236 238 239 240 243 246 249 250 250 249 248 247 246 245 244 244 244 243 243 243 242 240 239 236 233 230 230 234 238 240 241 245 248 247 247 251 256 258 260 260 260 262 263 264 267 270
206 205 205 206 210 215 220 224 228 229 224 221 224 227 230 234 236 235 236 239 243 248 251 252 252 251 249 248 248 247 246 247 248 248 247 245 246 245 244 244 243 240 236 233 230 232 236 239 243 245 245 243 247 253 256 257 257 258 258 260 261 263 266
206 206 208 212 218 223 225 229 233 232 227 226 230 232 234 238 239 238 238 239 241 245 249 250 249 246 244 246 247 246 247 248 248 249 248 247 247 245 244 245 245 245 245 242 239 236 237 241 244 245 246 247 248 251 254 255 256 254 253 256 259 261 264
206 209 214 221 225 228 230 234 237 236 232 230 232 234 237 241 242 243 244 244 243 243 245 246 245 242 241 244 246 246 248 249 247 246 246 246 245 244 242 242 243 244 245 245 245 245 245 247 247 247 249 251 252 252 253 252 252 252 253 258 261 262 263
211 216 221 227 229 231 234 237 240 238 234 233 235 237 240 242 243 245 246 246 246 246 247 246 242 241 241 242 244 245 246 247 245 242 240 241 243 243 242 242 243 244 245 245 244 244 247 248 247 246 248 247 245 246 245 244 246 250 252 256 259 258 257
218 224 228 231 233 235 237 240 242 240 235 234 236 238 239 241 243 245 246 247 247 247 247 246 243 243 245 246 247 248 248 247 244 238 235 237 240 240 240 242 245 247 249 251 250 248 248 249 249 250 251 249 246 243 239 235 237 240 241 245 250 253 255
226 230 234 237 239 240 241 244 247 245 240 238 238 237 238 240 242 244 246 246 247 246 246 247 245 244 245 247 249 249 249 249 247 242 236 235 237 236 236 241 245 247 249 254 256 257 257 255 254 255 257 258 257 255 249 240 237 237 237 241 246 252 258
233 235 237 241 244 244 245 247 250 250 245 241 239 238 238 240 240 242 243 245 247 247 246 246 246 245 245 246 248 249 249 249 248 243 238 237 237 234 234 239 244 245 247 251 254 259 262 261 259 259 260 261 261 262 261 256 252 248 243 245 250 253 258
237 238 239 243 246 248 248 249 251 253 250 244 240 239 238 239 239 239 240 243 245 246 246 245 245 245 246 246 248 250 252 253 251 246 240 237 236 236 236 240 242 241 243 247 250 255 260 262 263 263 265 266 266 264 264 263 259 254 247 245 249 250 251
238 240 242 245 247 250 252 253 254 255 253 247 242 240 239 239 239 238 239 243 244 244 246 246 246 247 247 246 248 251 253 256 257 254 245 237 235 240 242 240 238 238 239 240 243 247 250 254 258 261 262 263 263 261 260 261 260 257 251 244 243 244 248
240 243 246 248 250 252 255 257 257 258 257 251 245 242 242 241 240 239 239 241 242 243 246 246 246 247 247 246 248 252 254 257 260 259 254 247 244 247 247 241 237 236 234 232 233 235 236 239 243 245 246 246 246 247 248 249 250 252 250 246 245 245 247
246 246 247 248 251 253 256 259 260 260 260 258 253 248 245 244 242 241 239 239 240 242 246 247 247 248 249 248 250 254 255 258 261 260 257 255 254 255 253 248 242 234 226 222 223 224 227 230 230 230 231 231 233 238 240 238 237 238 242 247 251 252 252
245 244 243 247 249 250 251 255 259 261 264 264 262 256 249 246 245 244 242 241 243 244 245 248 248 249 250 249 251 255 258 261 263 261 258 263 268 265 258 254 245 229 216 212 212 215 220 223 222 224 228 229 231 236 236 233 230 229 233 244 254 259 260
241 238 240 243 245 245 244 246 252 260 264 266 265 262 255 248 246 248 247 247 248 248 248 249 251 252 254 255 257 261 265 266 267 265 267 274 274 257 242 234 223 214 211 211 212 214 218 221 223 226 231 234 235 236 234 233 234 237 245 256 262 265 266
243 243 244 246 245 245 245 242 244 253 261 264 263 263 260 254 249 248 248 248 250 251 251 252 254 256 258 260 262 263 264 264 266 267 268 268 257 238 230 221 210 209 213 215 218 221 223 227 231 234 237 239 239 237 238 240 244 250 257 261 261 261 263
242 243 244 247 248 247 246 245 242 244 251 255 256 258 261 261 256 251 248 248 249 249 250 251 252 253 255 258 259 260 261 262 262 261 258 254 245 235 231 226 221 222 222 221 223 227 231 236 240 239 238 238 237 237 241 246 248 251 254 253 249 252 257
244 244 245 248 250 249 249 248 243 240 242 247 252 256 257 258 257 253 248 247 248 248 248 249 250 251 252 254 254 255 255 253 250 247 242 239 234 232 233 231 228 225 224 225 228 232 235 238 238 235 232 232 235 238 241 243 243 245 250 250 247 249 256
251 251 251 250 248 247 246 246 246 245 248 253 257 258 255 253 253 254 254 255 255 251 246 244 245 245 245 244 242 241 240 239 237 236 235 233 231 229 227 224 220 219 223 228 230 230 230 230 230 229 229 230 234 240 243 243 243 245 249 248 244 248 256
255 256 255 252 251 250 248 253 261 265 264 265 264 261 257 252 249 250 254 259 259 249 237 233 234 235 235 234 232 231 231 230 230 229 229 228 226 225 222 220 222 226 230 231 227 222 221 223 225 228 230 231 235 243 248 247 245 244 244 242 243 251 256
260 261 259 256 258 258 256 261 271 275 272 270 270 269 266 263 258 254 252 253 251 242 230 225 228 230 232 233 231 229 227 225 224 224 223 222 220 219 218 220 224 229 229 226 222 220 220 222 225 229 232 233 238 249 253 249 245 243 242 243 246 250 254
269 270 267 264 264 264 263 265 271 274 271 269 271 273 275 278 278 273 264 260 260 251 236 231 233 234 236 236 234 231 227 224 223 221 220 220 218 216 215 217 221 222 219 215 216 218 218 221 224 227 231 236 242 248 248 244 244 245 243 245 248 249 251
273 273 275 274 273 274 275 278 281 281 279 278 278 278 281 284 282 275 270 270 274 267 250 244 243 242 240 238 236 234 228 223 222 222 220 220 220 221 222 222 219 214 211 211 213 214 215 220 224 228 236 242 241 239 237 238 241 245 245 247 249 250 252
280 277 276 277 280 283 283 282 283 283 281 281 280 279 279 279 277 273 268 265 262 257 253 249 247 245 243 240 238 235 230 224 222 221 221 222 224 226 228 225 215 210 210 213 214 214 217 223 229 233 236 237 233 230 231 234 237 240 243 246 249 252 255
288 285 279 277 283 287 284 280 282 285 283 281 280 279 278 275 271 268 264 257 251 249 249 247 243 241 241 238 235 233 231 227 225 223 222 224 226 226 224 218 212 210 211 212 213 217 224 229 229 229 228 226 226 226 227 231 235 239 242 246 250 253 256
285 287 285 281 283 285 283 278 279 281 281 280 279 278 274 267 259 256 256 253 249 245 243 242 240 239 239 237 235 236 236 233 232 230 226 225 227 225 219 213 211 211 213 215 218 224 227 223 218 218 218 219 224 228 229 234 239 243 245 247 249 253 257